FW6037 Weather Reports


Display with metric or nautical units.
time (UTC)temp
F
wind
direction
speed
MPH
gust
MPH
rain 1hr
in
rain 24hr
in
rain mn
in
humidity
%
barometer
mb
20260503204522 36 91 7.0 10.0 0.09 0.10 0.10 97 1000.7
20260503203024 36 111 4.0 9.0 0.09 0.09 0.09 97 1001.4
20260503201518 36 76 4.0 9.0 0.05 0.05 0.05 96 1001.7
20260503200015 36 87 7.0 10.0 0.02 0.02 0.02 95 1002.9
20260503194514 36 101 7.0 11.0 0.00 0.00 0.00 95 1003.9
20260503193010 37 116 5.0 9.0 0.00 0.00 0.00 94 1004.4
20260503191508 37 110 3.0 6.0 0.00 0.00 0.00 94 1005.4
20260503190006 37 110 0.0 3.0 0.00 0.00 0.00 93 1006.1
20260503184508 37 110 3.0 7.0 0.00 0.00 0.00 93 1006.7
20260503183001 38 112 4.0 7.0 0.00 0.00 0.00 93 1007.0
20260503181559 38 123 4.0 8.0 0.00 0.00 0.00 91 1007.6
20260503180058 39 89 2.0 9.0 0.00 0.00 0.00 90 1008.0
20260503174555 40 137 0.0 5.0 0.00 0.00 0.00 89 1008.2
20260503173054 41 145 2.0 6.0 0.00 0.00 0.00 87 1008.8
20260503171610 42 150 3.0 5.0 0.00 0.00 0.00 85 1008.6
20260503081538 29 240 2.0 4.0 0.00 0.04 0.00 97 1015.5
20260503071552 29 239 3.0 4.0 0.00 0.17 0.00 97 1015.7
20260503054530 29 233 3.0 5.0 0.00 0.48 0.00 97 1015.6
20260503053036 29 233 3.0 5.0 0.00 0.48 0.00 97 1015.7
20260503051529 29 222 2.0 4.0 0.00 0.48 0.00 97 1015.8
20260503050024 29 222 2.0 4.0 0.00 0.48 0.00 97 1016.2
20260503044541 29 222 2.0 4.0 0.00 0.65 0.00 97 1015.9
20260503043038 29 221 2.0 5.0 0.00 0.65 0.00 97 1016.3
20260503041519 29 198 2.0 3.0 0.00 0.65 0.00 97 1016.2
20260503040019 29 198 0.0 3.0 0.00 0.65 0.00 97 1016.2
20260503034516 30 197 1.0 4.0 0.00 0.88 0.00 97 1016.7
20260503033015 30 197 1.0 4.0 0.00 0.88 0.00 97 1016.9
20260503031514 30 196 0.0 0.0 0.00 0.88 0.00 97 1016.9
20260503030008 30 196 0.0 1.0 0.00 1.12 0.88 97 1017.0
20260503024504 30 196 2.0 4.0 0.00 1.12 0.88 97 1016.9
20260503023002 30 195 2.0 3.0 0.00 1.12 0.88 97 1016.5
20260503021502 30 195 2.0 4.0 0.00 1.12 0.88 97 1016.4
20260503020002 30 195 0.0 4.0 0.00 1.28 0.88 96 1016.2
20260503014604 31 195 2.0 3.0 0.00 1.28 0.88 96 1016.2
20260503013101 31 194 0.0 2.0 0.00 1.28 0.88 96 1016.3
20260503011622 31 193 0.0 2.0 0.00 1.28 0.88 96 1016.4
20260503010058 31 193 1.0 2.0 0.00 1.28 0.88 96 1016.6
20260503004553 32 193 3.0 4.0 0.00 1.43 0.88 95 1016.6
20260503003053 32 153 0.0 2.0 0.00 1.43 0.88 96 1016.4
20260503001550 32 152 0.0 3.0 0.00 1.43 0.88 95 1016.2
20260502234557 34 152 0.0 3.0 0.00 1.60 0.88 94 1016.1
20260502233039 36 118 0.0 2.0 0.00 1.60 0.88 94 1015.9
20260502231539 37 118 0.0 1.0 0.00 1.60 0.88 94 1015.8
20260502230037 37 118 0.0 2.0 0.00 1.60 0.88 94 1015.6
20260502224535 38 118 0.0 0.0 0.00 1.80 0.88 93 1015.6
20260502223034 39 118 1.0 4.0 0.00 1.80 0.88 93 1015.4
20260502221532 40 119 2.0 4.0 0.00 1.80 0.88 92 1015.2
20260502220033 40 119 1.0 3.0 0.00 1.80 0.88 91 1014.9
20260502214528 41 119 2.0 6.0 0.00 1.87 0.88 89 1014.7
20260502213032 43 121 2.0 7.0 0.00 1.87 0.88 87 1014.4
20260502211532 44 107 5.0 7.0 0.00 1.87 0.88 86 1014.0
20260502210021 45 112 3.0 8.0 0.00 1.87 0.88 86 1013.6